FW1481 Weather Reports


time (UTC)temp
C
wind
direction
speed
KPH
gust
KPH
rain 1hr
cm
rain 24hr
cm
rain mn
cm
humidity
%
barometer
mb
20260504034542 12 312 0.0 1.6 0.00 0.00 0.00 59 1006.2
20260504033011 12 312 0.0 1.6 0.00 0.00 0.00 58 1006.2
20260504031549 12 312 0.0 0.0 0.00 0.00 0.00 57 1006.3
20260504030105 12 312 0.0 0.0 0.00 0.00 0.00 57 1006.2
20260504024543 13 312 0.0 0.0 0.00 0.00 0.00 54 1006.3
20260504023016 14 312 0.0 1.6 0.00 0.00 0.00 52 1006.1
20260504021610 15 312 0.0 4.8 0.00 0.00 0.00 49 1006.1
20260504020039 15 334 0.0 3.2 0.00 0.00 0.00 49 1006.0
20260504014547 15 334 0.0 6.4 0.00 0.00 0.00 47 1005.9
20260504013105 16 322 1.6 6.4 0.00 0.00 0.00 45 1005.9
20260504011533 17 324 3.2 8.0 0.00 0.00 0.00 44 1005.8
20260504010120 18 341 3.2 8.0 0.00 0.00 0.00 42 1005.3
20260504004534 19 350 4.8 16.1 0.00 0.00 0.00 39 1005.1
20260504003101 20 330 6.4 14.5 0.00 0.00 0.00 38 1005.1
20260504001552 21 4 6.4 14.5 0.00 0.00 0.00 36 1005.3
20260504000016 21 354 6.4 17.7 0.00 0.00 0.00 34 1005.1
20260503234553 21 344 8.0 19.3 0.00 0.00 0.00 35 1005.1
20260503233033 21 330 8.0 22.5 0.00 0.00 0.00 32 1005.0
20260503231556 21 29 14.5 24.1 0.00 0.00 0.00 31 1005.1
20260503230031 22 359 22.5 33.8 0.00 0.00 0.00 29 1005.1
20260503224556 22 332 16.1 29.0 0.00 0.00 0.00 30 1005.0
20260503223035 22 8 16.1 25.7 0.00 0.00 0.00 31 1004.9
20260503221544 22 4 17.7 33.8 0.00 0.00 0.00 31 1004.9
20260503220027 22 4 11.3 27.4 0.00 0.00 0.00 33 1004.8
20260503214552 22 4 20.9 33.8 0.00 0.00 0.00 31 1004.9
20260503213130 22 322 11.3 27.4 0.00 0.00 0.00 34 1005.0
20260503211549 22 354 14.5 29.0 0.00 0.00 0.00 34 1004.9
20260503210057 22 4 12.9 30.6 0.00 0.00 0.00 36 1005.0
20260503204520 22 314 16.1 40.2 0.00 0.00 0.00 35 1005.1
20260503203049 22 345 14.5 29.0 0.00 0.00 0.00 37 1005.1
20260503201510 22 14 14.5 29.0 0.00 0.00 0.00 39 1005.2
20260503200033 22 18 19.3 30.6 0.00 0.00 0.00 37 1005.2
20260503194559 22 289 14.5 35.4 0.00 0.00 0.00 39 1005.4
20260503193034 21 350 12.9 30.6 0.00 0.00 0.00 40 1005.5
20260503191606 21 296 9.7 22.5 0.00 0.00 0.00 41 1005.6
20260503190024 21 350 8.0 25.7 0.00 0.00 0.00 45 1005.7
20260503184604 21 328 9.7 24.1 0.00 0.00 0.00 45 1005.9
20260503183031 21 350 14.5 29.0 0.00 0.00 0.00 45 1005.9
20260503181609 20 4 9.7 24.1 0.00 0.00 0.00 47 1006.1
20260503180031 20 307 8.0 20.9 0.00 0.00 0.00 50 1006.2
20260503174602 19 329 8.0 16.1 0.00 0.00 0.00 49 1006.4
20260503173131 19 274 11.3 24.1 0.00 0.00 0.00 50 1006.6
20260503171527 18 296 6.4 24.1 0.00 0.00 0.00 54 1006.9
20260503120103 9 184 9.7 17.7 0.00 0.00 0.00 71 1010.4
20260503100105 10 250 3.2 6.4 0.00 0.00 0.00 65 1013.0
20260503081538 10 308 4.8 14.5 0.00 0.00 0.00 64 1013.2
20260503080105 11 264 16.1 24.1 0.00 0.00 0.00 59 1013.1
20260503071551 10 18 9.7 19.3 0.00 0.00 0.00 60 1013.3
20260503054557 9 231 4.8 16.1 0.00 0.00 0.00 61 1013.6
20260503053013 9 291 8.0 17.7 0.00 0.00 0.00 60 1013.8
20260503051545 9 286 6.4 16.1 0.00 0.00 0.00 59 1013.9
20260503050051 10 285 8.0 17.7 0.00 0.00 0.00 58 1014.0
20260503044523 10 270 9.7 17.7 0.00 0.00 0.00 57 1014.0
20260503043002 10 279 8.0 16.1 0.00 0.00 0.00 57 1014.2
20260503041543 10 270 9.7 14.5 0.00 0.00 0.00 56 1014.3
20260503040019 10 291 8.0 14.5 0.00 0.00 0.00 55 1014.5